Year,Month,Day,Hour,Minute,Value (Times are PST for windgust in km/hr)
2010,05,03,00,00,9.60
2010,05,03,00,01,4.80
2010,05,03,00,02,6.40
2010,05,03,00,03,8.10
2010,05,03,00,04,8.10
2010,05,03,00,05,9.60
2010,05,03,00,06,16.10
2010,05,03,00,07,11.30
2010,05,03,00,08,6.40
2010,05,03,00,09,9.60
2010,05,03,00,10,16.10
2010,05,03,00,11,9.60
2010,05,03,00,12,11.30
2010,05,03,00,13,12.90
2010,05,03,00,14,6.40
2010,05,03,00,15,11.30
2010,05,03,00,16,11.30
2010,05,03,00,17,9.60
2010,05,03,00,18,8.10
2010,05,03,00,19,9.60
2010,05,03,00,20,8.10
2010,05,03,00,21,16.10
2010,05,03,00,22,11.30
2010,05,03,00,23,8.10
2010,05,03,00,24,6.40
2010,05,03,00,25,9.60
2010,05,03,00,26,11.30
2010,05,03,00,27,12.90
2010,05,03,00,28,9.60
2010,05,03,00,29,9.60
2010,05,03,00,30,8.10
2010,05,03,00,31,14.50
2010,05,03,00,32,12.90
2010,05,03,00,33,16.10
2010,05,03,00,34,19.30
2010,05,03,00,35,14.50
2010,05,03,00,36,11.30
2010,05,03,00,37,11.30
2010,05,03,00,38,17.70
2010,05,03,00,39,16.10
2010,05,03,00,40,17.70
2010,05,03,00,41,19.30
2010,05,03,00,42,19.30
2010,05,03,00,43,19.30
2010,05,03,00,44,17.70
2010,05,03,00,45,14.50
2010,05,03,00,46,16.10
2010,05,03,00,47,17.70
2010,05,03,00,48,9.60
2010,05,03,00,49,8.10
2010,05,03,00,50,16.10
2010,05,03,00,51,11.30
2010,05,03,00,52,11.30
2010,05,03,00,53,8.10
2010,05,03,00,54,6.40
2010,05,03,00,55,16.10
2010,05,03,00,56,9.60
2010,05,03,00,57,16.10
2010,05,03,00,58,8.10
2010,05,03,00,59,14.50
2010,05,03,01,00,9.60
2010,05,03,01,01,6.40
2010,05,03,01,02,6.40
2010,05,03,01,03,12.90
2010,05,03,01,04,11.30
2010,05,03,01,05,11.30
2010,05,03,01,06,11.30
2010,05,03,01,07,19.30
2010,05,03,01,08,17.70
2010,05,03,01,09,11.30
2010,05,03,01,10,17.70
2010,05,03,01,11,11.30
2010,05,03,01,12,16.10
2010,05,03,01,13,14.50
2010,05,03,01,14,11.30
2010,05,03,01,15,12.90
2010,05,03,01,16,16.10
2010,05,03,01,17,16.10
2010,05,03,01,18,17.70
2010,05,03,01,19,11.30
2010,05,03,01,20,19.30
2010,05,03,01,21,17.70
2010,05,03,01,22,16.10
2010,05,03,01,23,16.10
2010,05,03,01,24,16.10
2010,05,03,01,25,22.50
2010,05,03,01,26,16.10
2010,05,03,01,27,19.30
2010,05,03,01,28,16.10
2010,05,03,01,29,20.90
2010,05,03,01,30,19.30
2010,05,03,01,31,16.10
2010,05,03,01,32,9.60
2010,05,03,01,33,16.10
2010,05,03,01,34,9.60
2010,05,03,01,35,11.30
2010,05,03,01,36,20.90
2010,05,03,01,37,20.90
2010,05,03,01,38,19.30
2010,05,03,01,39,20.90
2010,05,03,01,40,11.30
2010,05,03,01,41,14.50
2010,05,03,01,42,17.70
2010,05,03,01,43,20.90
2010,05,03,01,44,16.10
2010,05,03,01,45,19.30
2010,05,03,01,46,20.90
2010,05,03,01,47,17.70
2010,05,03,01,48,19.30
2010,05,03,01,49,22.50
2010,05,03,01,50,19.30
2010,05,03,01,51,17.70
2010,05,03,01,52,17.70
2010,05,03,01,53,24.20
2010,05,03,01,54,22.50
2010,05,03,01,55,24.20
2010,05,03,01,56,25.70
2010,05,03,01,57,22.50
2010,05,03,01,58,22.50
2010,05,03,01,59,25.70
2010,05,03,02,00,32.20
2010,05,03,02,01,30.60
2010,05,03,02,02,22.50
2010,05,03,02,03,27.40
2010,05,03,02,04,27.40
2010,05,03,02,05,27.40
2010,05,03,02,06,33.80
2010,05,03,02,07,25.70
2010,05,03,02,08,22.50
2010,05,03,02,09,30.60
2010,05,03,02,10,33.80
2010,05,03,02,11,30.60
2010,05,03,02,12,30.60
2010,05,03,02,13,32.20
2010,05,03,02,14,41.80
2010,05,03,02,15,30.60
2010,05,03,02,16,27.40
2010,05,03,02,17,24.20
2010,05,03,02,18,25.70
2010,05,03,02,19,25.70
2010,05,03,02,20,22.50
2010,05,03,02,21,22.50
2010,05,03,02,22,29.00
2010,05,03,02,23,30.60
2010,05,03,02,24,29.00
2010,05,03,02,25,25.70
2010,05,03,02,26,32.20
2010,05,03,02,27,45.10
2010,05,03,02,28,41.80
2010,05,03,02,29,32.20
2010,05,03,02,30,35.40
2010,05,03,02,31,35.40
2010,05,03,02,32,35.40
2010,05,03,02,33,46.70
2010,05,03,02,34,45.10
2010,05,03,02,35,33.80
2010,05,03,02,36,35.40
2010,05,03,02,37,27.40
2010,05,03,02,38,35.40
2010,05,03,02,39,48.30
2010,05,03,02,40,37.00
2010,05,03,02,41,43.50
2010,05,03,02,42,45.10
2010,05,03,02,43,38.60
2010,05,03,02,44,40.20
2010,05,03,02,45,37.00
2010,05,03,02,46,35.40
2010,05,03,02,47,33.80
2010,05,03,02,48,45.10
2010,05,03,02,49,53.10
2010,05,03,02,50,53.10
2010,05,03,02,51,38.60
2010,05,03,02,52,48.30
2010,05,03,02,53,43.50
2010,05,03,02,54,48.30
2010,05,03,02,55,48.30
2010,05,03,02,56,51.50
2010,05,03,02,57,35.40
2010,05,03,02,58,49.90
2010,05,03,02,59,51.50
2010,05,03,03,00,48.30
2010,05,03,03,01,54.70
2010,05,03,03,02,45.10
2010,05,03,03,03,37.00
2010,05,03,03,04,30.60
2010,05,03,03,05,41.80
2010,05,03,03,06,48.30
2010,05,03,03,07,32.20
2010,05,03,03,08,30.60
2010,05,03,03,09,32.20
2010,05,03,03,10,27.40
2010,05,03,03,11,40.20
2010,05,03,03,12,37.00
2010,05,03,03,13,46.70
2010,05,03,03,14,37.00
2010,05,03,03,15,33.80
2010,05,03,03,16,32.20
2010,05,03,03,17,35.40
2010,05,03,03,18,40.20
2010,05,03,03,19,43.50
2010,05,03,03,20,54.70
2010,05,03,03,21,33.80
2010,05,03,03,22,40.20
2010,05,03,03,23,53.10
2010,05,03,03,24,53.10
2010,05,03,03,25,37.00
2010,05,03,03,26,25.70
2010,05,03,03,27,41.80
2010,05,03,03,28,32.20
2010,05,03,03,29,46.70
2010,05,03,03,30,41.80
2010,05,03,03,31,27.40
2010,05,03,03,32,40.20
2010,05,03,03,33,51.50
2010,05,03,03,34,35.40
2010,05,03,03,35,51.50
2010,05,03,03,36,29.00
2010,05,03,03,37,33.80
2010,05,03,03,38,33.80
2010,05,03,03,39,38.60
2010,05,03,03,40,41.80
2010,05,03,03,41,40.20
2010,05,03,03,42,45.10
2010,05,03,03,43,37.00
2010,05,03,03,44,41.80
2010,05,03,03,45,41.80
2010,05,03,03,46,32.20
2010,05,03,03,47,51.50
2010,05,03,03,48,41.80
2010,05,03,03,49,41.80
2010,05,03,03,50,38.60
2010,05,03,03,51,40.20
2010,05,03,03,52,61.20
2010,05,03,03,53,41.80
2010,05,03,03,54,38.60
2010,05,03,03,55,38.60
2010,05,03,03,56,41.80
2010,05,03,03,57,49.90
2010,05,03,03,58,41.80
2010,05,03,03,59,54.70
2010,05,03,04,00,51.50
2010,05,03,04,01,37.00
2010,05,03,04,02,53.10
2010,05,03,04,03,51.50
2010,05,03,04,04,41.80
2010,05,03,04,05,49.90
2010,05,03,04,06,48.30
2010,05,03,04,07,37.00
2010,05,03,04,08,53.10
2010,05,03,04,09,43.50
2010,05,03,04,10,48.30
2010,05,03,04,11,46.70
2010,05,03,04,12,51.50
2010,05,03,04,13,45.10
2010,05,03,04,14,37.00
2010,05,03,04,15,33.80
2010,05,03,04,16,45.10
2010,05,03,04,17,51.50
2010,05,03,04,18,51.50
2010,05,03,04,19,41.80
2010,05,03,04,20,33.80
2010,05,03,04,21,46.70
2010,05,03,04,22,46.70
2010,05,03,04,23,57.90
2010,05,03,04,24,35.40
2010,05,03,04,25,35.40
2010,05,03,04,26,35.40
2010,05,03,04,27,37.00
2010,05,03,04,28,35.40
2010,05,03,04,29,32.20
2010,05,03,04,30,41.80
2010,05,03,04,31,53.10
2010,05,03,04,32,48.30
2010,05,03,04,33,35.40
2010,05,03,04,34,48.30
2010,05,03,04,35,41.80
2010,05,03,04,36,46.70
2010,05,03,04,37,40.20
2010,05,03,04,38,45.10
2010,05,03,04,39,38.60
2010,05,03,04,40,48.30
2010,05,03,04,41,45.10
2010,05,03,04,42,32.20
2010,05,03,04,43,35.40
2010,05,03,04,44,51.50
2010,05,03,04,45,35.40
2010,05,03,04,46,49.90
2010,05,03,04,47,41.80
2010,05,03,04,48,37.00
2010,05,03,04,49,32.20
2010,05,03,04,50,57.90
2010,05,03,04,51,40.20
2010,05,03,04,52,32.20
2010,05,03,04,53,40.20
2010,05,03,04,54,45.10
2010,05,03,04,55,40.20
2010,05,03,04,56,48.30
2010,05,03,04,57,40.20
2010,05,03,04,58,32.20
2010,05,03,04,59,30.60
2010,05,03,05,00,38.60
2010,05,03,05,01,32.20
2010,05,03,05,02,35.40
2010,05,03,05,03,41.80
2010,05,03,05,04,45.10
2010,05,03,05,05,37.00
2010,05,03,05,06,45.10
2010,05,03,05,07,32.20
2010,05,03,05,08,38.60
2010,05,03,05,09,48.30
2010,05,03,05,10,35.40
2010,05,03,05,11,54.70
2010,05,03,05,12,54.70
2010,05,03,05,13,53.10
2010,05,03,05,14,33.80
2010,05,03,05,15,37.00
2010,05,03,05,16,30.60
2010,05,03,05,17,37.00
2010,05,03,05,18,38.60
2010,05,03,05,19,27.40
2010,05,03,05,20,30.60
2010,05,03,05,21,40.20
2010,05,03,05,22,41.80
2010,05,03,05,23,49.90
2010,05,03,05,24,48.30
2010,05,03,05,25,49.90
2010,05,03,05,26,35.40
2010,05,03,05,27,37.00
2010,05,03,05,28,48.30
2010,05,03,05,29,45.10
2010,05,03,05,30,43.50
2010,05,03,05,31,53.10
2010,05,03,05,32,43.50
2010,05,03,05,33,43.50
2010,05,03,05,34,35.40
2010,05,03,05,35,35.40
2010,05,03,05,36,41.80
2010,05,03,05,37,25.70
2010,05,03,05,38,32.20
2010,05,03,05,39,29.00
2010,05,03,05,40,35.40
2010,05,03,05,41,53.10
2010,05,03,05,42,51.50
2010,05,03,05,43,46.70
2010,05,03,05,44,33.80
2010,05,03,05,45,37.00
2010,05,03,05,46,35.40
2010,05,03,05,47,48.30
2010,05,03,05,48,40.20
2010,05,03,05,49,35.40
2010,05,03,05,50,27.40
2010,05,03,05,51,22.50
2010,05,03,05,52,24.20
2010,05,03,05,53,27.40
2010,05,03,05,54,40.20
2010,05,03,05,55,35.40
2010,05,03,05,56,41.80
2010,05,03,05,57,45.10
2010,05,03,05,58,33.80
2010,05,03,05,59,40.20
2010,05,03,06,00,43.50
2010,05,03,06,01,46.70
2010,05,03,06,02,48.30
2010,05,03,06,03,32.20
2010,05,03,06,04,48.30
2010,05,03,06,05,45.10
2010,05,03,06,06,45.10
2010,05,03,06,07,51.50
2010,05,03,06,08,37.00
2010,05,03,06,09,37.00
2010,05,03,06,10,35.40
2010,05,03,06,11,57.90
2010,05,03,06,12,38.60
2010,05,03,06,13,49.90
2010,05,03,06,14,33.80
2010,05,03,06,15,30.60
2010,05,03,06,16,43.50
2010,05,03,06,17,37.00
2010,05,03,06,18,41.80
2010,05,03,06,19,37.00
2010,05,03,06,20,46.70
2010,05,03,06,21,46.70
2010,05,03,06,22,33.80
2010,05,03,06,23,41.80
2010,05,03,06,24,35.40
2010,05,03,06,25,29.00
2010,05,03,06,26,38.60
2010,05,03,06,27,53.10
2010,05,03,06,28,48.30
2010,05,03,06,29,35.40
2010,05,03,06,30,27.40
2010,05,03,06,31,35.40
2010,05,03,06,32,37.00
2010,05,03,06,33,38.60
2010,05,03,06,34,41.80
2010,05,03,06,35,38.60
2010,05,03,06,36,33.80
2010,05,03,06,37,27.40
2010,05,03,06,38,41.80
2010,05,03,06,39,41.80
2010,05,03,06,40,35.40
2010,05,03,06,41,45.10
2010,05,03,06,42,46.70
2010,05,03,06,43,45.10
2010,05,03,06,44,32.20
2010,05,03,06,45,37.00
2010,05,03,06,46,41.80
2010,05,03,06,47,43.50
2010,05,03,06,48,53.10
2010,05,03,06,49,40.20
2010,05,03,06,50,51.50
2010,05,03,06,51,51.50
2010,05,03,06,52,53.10
2010,05,03,06,53,43.50
2010,05,03,06,54,29.00
2010,05,03,06,55,35.40
2010,05,03,06,56,40.20
2010,05,03,06,57,51.50
2010,05,03,06,58,49.90
2010,05,03,06,59,24.20
2010,05,03,07,00,29.00
2010,05,03,07,01,51.50
2010,05,03,07,02,46.70
2010,05,03,07,03,38.60
2010,05,03,07,04,37.00
2010,05,03,07,05,29.00
2010,05,03,07,06,45.10
2010,05,03,07,07,40.20
2010,05,03,07,08,41.80
2010,05,03,07,09,43.50
2010,05,03,07,10,53.10
2010,05,03,07,11,35.40
2010,05,03,07,12,33.80
2010,05,03,07,13,48.30
2010,05,03,07,14,35.40
2010,05,03,07,15,46.70
2010,05,03,07,16,37.00
2010,05,03,07,17,41.80
2010,05,03,07,18,35.40
2010,05,03,07,19,29.00
2010,05,03,07,20,32.20
2010,05,03,07,21,43.50
2010,05,03,07,22,45.10
2010,05,03,07,23,41.80
2010,05,03,07,24,32.20
2010,05,03,07,25,41.80
2010,05,03,07,26,27.40
2010,05,03,07,27,41.80
2010,05,03,07,28,49.90
2010,05,03,07,29,49.90
2010,05,03,07,30,30.60
2010,05,03,07,31,41.80
2010,05,03,07,32,43.50
2010,05,03,07,33,43.50
2010,05,03,07,34,48.30
2010,05,03,07,35,30.60
2010,05,03,07,36,35.40
2010,05,03,07,37,35.40
2010,05,03,07,38,53.10
2010,05,03,07,39,49.90
2010,05,03,07,40,45.10
2010,05,03,07,41,40.20
2010,05,03,07,42,51.50
2010,05,03,07,43,30.60
2010,05,03,07,44,37.00
2010,05,03,07,45,40.20
2010,05,03,07,46,45.10
2010,05,03,07,47,45.10
2010,05,03,07,48,51.50
2010,05,03,07,49,67.60
2010,05,03,07,50,59.50
2010,05,03,07,51,49.90
2010,05,03,07,52,51.50
2010,05,03,07,53,51.50
2010,05,03,07,54,49.90
2010,05,03,07,55,41.80
2010,05,03,07,56,32.20
2010,05,03,07,57,27.40
2010,05,03,07,58,37.00
2010,05,03,07,59,43.50
2010,05,03,08,00,37.00
2010,05,03,08,01,38.60
2010,05,03,08,02,35.40
2010,05,03,08,03,37.00
2010,05,03,08,04,33.80
2010,05,03,08,05,41.80
2010,05,03,08,06,32.20
2010,05,03,08,07,33.80
2010,05,03,08,08,41.80
2010,05,03,08,09,40.20
2010,05,03,08,10,51.50
2010,05,03,08,11,43.50
2010,05,03,08,12,51.50
2010,05,03,08,13,51.50
2010,05,03,08,14,40.20
2010,05,03,08,15,43.50
2010,05,03,08,16,40.20
2010,05,03,08,17,38.60
2010,05,03,08,18,35.40
2010,05,03,08,19,27.40
2010,05,03,08,20,37.00
2010,05,03,08,21,32.20
2010,05,03,08,22,30.60
2010,05,03,08,23,27.40
2010,05,03,08,24,38.60
2010,05,03,08,25,54.70
2010,05,03,08,26,48.30
2010,05,03,08,27,40.20
2010,05,03,08,28,43.50
2010,05,03,08,29,45.10
2010,05,03,08,30,33.80
2010,05,03,08,31,46.70
2010,05,03,08,32,43.50
2010,05,03,08,33,41.80
2010,05,03,08,34,59.50
2010,05,03,08,35,53.10
2010,05,03,08,36,41.80
2010,05,03,08,37,32.20
2010,05,03,08,38,59.50
2010,05,03,08,39,43.50
2010,05,03,08,40,38.60
2010,05,03,08,41,35.40
2010,05,03,08,42,40.20
2010,05,03,08,43,37.00
2010,05,03,08,44,25.70
2010,05,03,08,45,32.20
2010,05,03,08,46,45.10
2010,05,03,08,47,41.80
2010,05,03,08,48,33.80
2010,05,03,08,49,48.30
2010,05,03,08,50,53.10
2010,05,03,08,51,53.10
2010,05,03,08,52,51.50
2010,05,03,08,53,33.80
2010,05,03,08,54,45.10
2010,05,03,08,55,41.80
2010,05,03,08,56,43.50
2010,05,03,08,57,40.20
2010,05,03,08,58,37.00
2010,05,03,08,59,33.80
2010,05,03,09,00,40.20
2010,05,03,09,01,37.00
2010,05,03,09,02,43.50
2010,05,03,09,03,49.90
2010,05,03,09,04,46.70
2010,05,03,09,05,45.10
2010,05,03,09,06,41.80
2010,05,03,09,07,48.30
2010,05,03,09,08,37.00
2010,05,03,09,09,48.30
2010,05,03,09,10,48.30
2010,05,03,09,11,40.20
2010,05,03,09,12,45.10
2010,05,03,09,13,49.90
2010,05,03,09,14,41.80
2010,05,03,09,15,59.50
2010,05,03,09,16,53.10
2010,05,03,09,17,37.00
2010,05,03,09,18,45.10
2010,05,03,09,19,38.60
2010,05,03,09,20,35.40
2010,05,03,09,21,35.40
2010,05,03,09,22,45.10
2010,05,03,09,23,30.60
2010,05,03,09,24,30.60
2010,05,03,09,25,38.60
2010,05,03,09,26,48.30
2010,05,03,09,27,40.20
2010,05,03,09,28,48.30
2010,05,03,09,29,40.20
2010,05,03,09,30,32.20
2010,05,03,09,31,35.40
2010,05,03,09,32,46.70
2010,05,03,09,33,27.40
2010,05,03,09,34,41.80
2010,05,03,09,35,27.40
2010,05,03,09,36,49.90
2010,05,03,09,37,32.20
2010,05,03,09,38,40.20
2010,05,03,09,39,54.70
2010,05,03,09,40,37.00
2010,05,03,09,41,37.00
2010,05,03,09,42,48.30
2010,05,03,09,43,38.60
2010,05,03,09,44,38.60
2010,05,03,09,45,46.70
2010,05,03,09,46,40.20
2010,05,03,09,47,46.70
2010,05,03,09,48,38.60
2010,05,03,09,49,33.80
2010,05,03,09,50,41.80
2010,05,03,09,51,38.60
2010,05,03,09,52,37.00
2010,05,03,09,53,45.10
2010,05,03,09,54,33.80
2010,05,03,09,55,41.80
2010,05,03,09,56,41.80
2010,05,03,09,57,45.10
2010,05,03,09,58,33.80
2010,05,03,09,59,46.70
2010,05,03,10,00,45.10
2010,05,03,10,01,37.00
2010,05,03,10,02,35.40
2010,05,03,10,03,27.40
2010,05,03,10,04,32.20
2010,05,03,10,05,35.40
2010,05,03,10,06,48.30
2010,05,03,10,07,45.10
2010,05,03,10,08,33.80
2010,05,03,10,09,35.40
2010,05,03,10,10,30.60
2010,05,03,10,11,38.60
2010,05,03,10,12,49.90
2010,05,03,10,13,48.30
2010,05,03,10,14,40.20
2010,05,03,10,15,53.10
2010,05,03,10,16,53.10
2010,05,03,10,17,46.70
2010,05,03,10,18,46.70
2010,05,03,10,19,37.00
2010,05,03,10,20,27.40
2010,05,03,10,21,37.00
2010,05,03,10,22,37.00
2010,05,03,10,23,37.00
2010,05,03,10,24,45.10
2010,05,03,10,25,29.00
2010,05,03,10,26,40.20
2010,05,03,10,27,25.70
2010,05,03,10,28,37.00
2010,05,03,10,29,38.60
2010,05,03,10,30,37.00
2010,05,03,10,31,29.00
2010,05,03,10,32,32.20
2010,05,03,10,33,53.10
2010,05,03,10,34,49.90
2010,05,03,10,35,56.30
2010,05,03,10,36,40.20
2010,05,03,10,37,49.90
2010,05,03,10,38,40.20
2010,05,03,10,39,38.60
2010,05,03,10,40,29.00
2010,05,03,10,41,46.70
2010,05,03,10,42,41.80
2010,05,03,10,43,48.30
2010,05,03,10,44,46.70
2010,05,03,10,45,45.10
2010,05,03,10,46,45.10
2010,05,03,10,47,49.90
2010,05,03,10,48,53.10
2010,05,03,10,49,49.90
2010,05,03,10,50,38.60
2010,05,03,10,51,53.10
2010,05,03,10,52,48.30
2010,05,03,10,53,48.30
2010,05,03,10,54,37.00
2010,05,03,10,55,46.70
2010,05,03,10,56,48.30
2010,05,03,10,57,41.80
2010,05,03,10,58,30.60
2010,05,03,10,59,41.80
2010,05,03,11,00,40.20
2010,05,03,11,01,49.90
2010,05,03,11,02,54.70
2010,05,03,11,03,48.30
2010,05,03,11,04,59.50
2010,05,03,11,05,43.50
2010,05,03,11,06,48.30
2010,05,03,11,07,53.10
2010,05,03,11,08,35.40
2010,05,03,11,09,54.70
2010,05,03,11,10,53.10
2010,05,03,11,11,43.50
2010,05,03,11,12,40.20
2010,05,03,11,13,53.10
2010,05,03,11,14,45.10
2010,05,03,11,15,33.80
2010,05,03,11,16,33.80
2010,05,03,11,17,38.60
2010,05,03,11,18,37.00
2010,05,03,11,19,48.30
2010,05,03,11,20,37.00
2010,05,03,11,21,46.70
2010,05,03,11,22,43.50
2010,05,03,11,23,41.80
2010,05,03,11,24,49.90
2010,05,03,11,25,41.80
2010,05,03,11,26,51.50
2010,05,03,11,27,51.50
2010,05,03,11,28,41.80
2010,05,03,11,29,45.10
2010,05,03,11,30,53.10
2010,05,03,11,31,41.80
2010,05,03,11,32,40.20
2010,05,03,11,33,40.20
2010,05,03,11,34,45.10
2010,05,03,11,35,38.60
2010,05,03,11,36,41.80
2010,05,03,11,37,49.90
2010,05,03,11,38,38.60
2010,05,03,11,39,37.00
2010,05,03,11,40,41.80
2010,05,03,11,41,45.10
2010,05,03,11,42,53.10
2010,05,03,11,43,53.10
2010,05,03,11,44,53.10
2010,05,03,11,45,40.20
2010,05,03,11,46,40.20
2010,05,03,11,47,33.80
2010,05,03,11,48,43.50
2010,05,03,11,49,32.20
2010,05,03,11,50,41.80
2010,05,03,11,51,38.60
2010,05,03,11,52,37.00
2010,05,03,11,53,46.70
2010,05,03,11,54,45.10
2010,05,03,11,55,59.50
2010,05,03,11,56,38.60
2010,05,03,11,57,49.90
2010,05,03,11,58,41.80
2010,05,03,11,59,40.20
2010,05,03,12,00,49.90
2010,05,03,12,01,53.10
2010,05,03,12,02,38.60
2010,05,03,12,03,51.50
2010,05,03,12,04,54.70
2010,05,03,12,05,51.50
2010,05,03,12,06,53.10
2010,05,03,12,07,46.70
2010,05,03,12,08,41.80
2010,05,03,12,09,43.50
2010,05,03,12,10,40.20
2010,05,03,12,11,45.10
2010,05,03,12,12,45.10
2010,05,03,12,13,59.50
2010,05,03,12,14,49.90
2010,05,03,12,15,53.10
2010,05,03,12,16,43.50
2010,05,03,12,17,33.80
2010,05,03,12,18,38.60
2010,05,03,12,19,40.20
2010,05,03,12,20,33.80
2010,05,03,12,21,56.30
2010,05,03,12,22,41.80
2010,05,03,12,23,40.20
2010,05,03,12,24,45.10
2010,05,03,12,25,53.10
2010,05,03,12,26,37.00
2010,05,03,12,27,49.90
2010,05,03,12,28,40.20
2010,05,03,12,29,41.80
2010,05,03,12,30,32.20
2010,05,03,12,31,43.50
2010,05,03,12,32,41.80
2010,05,03,12,33,25.70
2010,05,03,12,34,41.80
2010,05,03,12,35,45.10
2010,05,03,12,36,41.80
2010,05,03,12,37,45.10
2010,05,03,12,38,41.80
2010,05,03,12,39,56.30
2010,05,03,12,40,43.50
2010,05,03,12,41,35.40
2010,05,03,12,42,37.00
2010,05,03,12,43,30.60
2010,05,03,12,44,25.70
2010,05,03,12,45,32.20
2010,05,03,12,46,32.20
2010,05,03,12,47,29.00
2010,05,03,12,48,37.00
2010,05,03,12,49,29.00
2010,05,03,12,50,33.80
2010,05,03,12,51,30.60
2010,05,03,12,52,38.60
2010,05,03,12,53,37.00
2010,05,03,12,54,33.80
2010,05,03,12,55,56.30
2010,05,03,12,56,30.60
2010,05,03,12,57,35.40
2010,05,03,12,58,33.80
2010,05,03,12,59,37.00
2010,05,03,13,00,27.40
2010,05,03,13,01,37.00
2010,05,03,13,02,33.80
2010,05,03,13,03,33.80
2010,05,03,13,04,37.00
2010,05,03,13,05,32.20
2010,05,03,13,06,20.90
2010,05,03,13,07,27.40
2010,05,03,13,08,27.40
2010,05,03,13,09,30.60
2010,05,03,13,10,19.30
2010,05,03,13,11,27.40
2010,05,03,13,12,32.20
2010,05,03,13,13,27.40
2010,05,03,13,14,32.20
2010,05,03,13,15,40.20
2010,05,03,13,16,41.80
2010,05,03,13,17,29.00
2010,05,03,13,18,30.60
2010,05,03,13,19,32.20
2010,05,03,13,20,46.70
2010,05,03,13,21,41.80
2010,05,03,13,22,32.20
2010,05,03,13,23,35.40
2010,05,03,13,24,29.00
2010,05,03,13,25,29.00
2010,05,03,13,26,32.20
2010,05,03,13,27,24.20
2010,05,03,13,28,41.80
2010,05,03,13,29,37.00
2010,05,03,13,30,40.20
2010,05,03,13,31,33.80
2010,05,03,13,32,27.40
2010,05,03,13,33,35.40
2010,05,03,13,34,33.80
2010,05,03,13,35,29.00
2010,05,03,13,36,30.60
2010,05,03,13,37,37.00
2010,05,03,13,38,40.20
2010,05,03,13,39,32.20
2010,05,03,13,40,33.80
2010,05,03,13,41,40.20
2010,05,03,13,42,30.60
2010,05,03,13,43,29.00
2010,05,03,13,44,25.70
2010,05,03,13,45,33.80
2010,05,03,13,46,29.00
2010,05,03,13,47,35.40
2010,05,03,13,48,35.40
2010,05,03,13,49,45.10
2010,05,03,13,50,41.80
2010,05,03,13,51,33.80
2010,05,03,13,52,32.20
2010,05,03,13,53,43.50
2010,05,03,13,54,41.80
2010,05,03,13,55,35.40
2010,05,03,13,56,33.80
2010,05,03,13,57,32.20
2010,05,03,13,58,49.90
2010,05,03,13,59,46.70
2010,05,03,14,00,53.10
2010,05,03,14,01,46.70
2010,05,03,14,02,53.10
2010,05,03,14,03,37.00
2010,05,03,14,04,38.60
2010,05,03,14,05,30.60
2010,05,03,14,06,38.60
2010,05,03,14,07,61.20
2010,05,03,14,08,45.10
2010,05,03,14,09,41.80
2010,05,03,14,10,41.80
2010,05,03,14,11,51.50
2010,05,03,14,12,43.50
2010,05,03,14,13,35.40
2010,05,03,14,14,49.90
2010,05,03,14,15,41.80
2010,05,03,14,16,46.70
2010,05,03,14,17,46.70
2010,05,03,14,18,48.30
2010,05,03,14,19,45.10
2010,05,03,14,20,57.90
2010,05,03,14,21,51.50
2010,05,03,14,22,49.90
2010,05,03,14,23,48.30
2010,05,03,14,24,54.70
2010,05,03,14,25,37.00
2010,05,03,14,26,41.80
2010,05,03,14,27,37.00
2010,05,03,14,28,45.10
2010,05,03,14,29,30.60
2010,05,03,14,30,48.30
2010,05,03,14,31,35.40
2010,05,03,14,32,32.20
2010,05,03,14,33,40.20
2010,05,03,14,34,49.90
2010,05,03,14,35,49.90
2010,05,03,14,36,45.10
2010,05,03,14,37,40.20
2010,05,03,14,38,48.30
2010,05,03,14,39,46.70
2010,05,03,14,40,43.50
2010,05,03,14,41,45.10
2010,05,03,14,42,49.90
2010,05,03,14,43,43.50
2010,05,03,14,44,37.00
2010,05,03,14,45,46.70
2010,05,03,14,46,38.60
2010,05,03,14,47,35.40
2010,05,03,14,48,41.80
2010,05,03,14,49,40.20
2010,05,03,14,50,38.60
2010,05,03,14,51,61.20
2010,05,03,14,52,40.20
2010,05,03,14,53,43.50
2010,05,03,14,54,49.90
2010,05,03,14,55,46.70
2010,05,03,14,56,45.10
2010,05,03,14,57,48.30
2010,05,03,14,58,38.60
2010,05,03,14,59,49.90
2010,05,03,15,00,40.20
2010,05,03,15,01,41.80
2010,05,03,15,02,46.70
2010,05,03,15,03,38.60
2010,05,03,15,04,37.00
2010,05,03,15,05,41.80
2010,05,03,15,06,40.20
2010,05,03,15,07,43.50
2010,05,03,15,08,46.70
2010,05,03,15,09,37.00
2010,05,03,15,10,32.20
2010,05,03,15,11,48.30
2010,05,03,15,12,49.90
2010,05,03,15,13,40.20
2010,05,03,15,14,46.70
2010,05,03,15,15,41.80
2010,05,03,15,16,49.90
2010,05,03,15,17,45.10
2010,05,03,15,18,40.20
2010,05,03,15,19,49.90
2010,05,03,15,20,49.90
2010,05,03,15,21,43.50
2010,05,03,15,22,29.00
2010,05,03,15,23,41.80
2010,05,03,15,24,38.60
2010,05,03,15,25,48.30
2010,05,03,15,26,49.90
2010,05,03,15,27,49.90
2010,05,03,15,28,38.60
2010,05,03,15,29,38.60
2010,05,03,15,30,43.50
2010,05,03,15,31,35.40
2010,05,03,15,32,30.60
2010,05,03,15,33,49.90
2010,05,03,15,34,38.60
2010,05,03,15,35,35.40
2010,05,03,15,36,41.80
2010,05,03,15,37,43.50
2010,05,03,15,38,48.30
2010,05,03,15,39,45.10
2010,05,03,15,40,38.60
2010,05,03,15,41,32.20
2010,05,03,15,42,40.20
2010,05,03,15,43,30.60
2010,05,03,15,44,40.20
2010,05,03,15,45,35.40
2010,05,03,15,46,35.40
2010,05,03,15,47,49.90
2010,05,03,15,48,43.50
2010,05,03,15,49,40.20
2010,05,03,15,50,54.70
2010,05,03,15,51,48.30
2010,05,03,15,52,49.90
2010,05,03,15,53,49.90
2010,05,03,15,54,40.20
2010,05,03,15,55,35.40
2010,05,03,15,56,45.10
2010,05,03,15,57,46.70
2010,05,03,15,58,53.10
2010,05,03,15,59,38.60
2010,05,03,16,00,33.80
2010,05,03,16,01,43.50
2010,05,03,16,02,45.10
2010,05,03,16,03,40.20
2010,05,03,16,04,46.70
2010,05,03,16,05,45.10
2010,05,03,16,06,33.80
2010,05,03,16,07,29.00
2010,05,03,16,08,38.60
2010,05,03,16,09,32.20
2010,05,03,16,10,43.50
2010,05,03,16,11,37.00
2010,05,03,16,12,40.20
2010,05,03,16,13,40.20
2010,05,03,16,14,45.10
2010,05,03,16,15,40.20
2010,05,03,16,16,41.80
2010,05,03,16,17,46.70
2010,05,03,16,18,40.20
2010,05,03,16,19,43.50
2010,05,03,16,20,46.70
2010,05,03,16,21,37.00
2010,05,03,16,22,48.30
2010,05,03,16,23,46.70
2010,05,03,16,24,45.10
2010,05,03,16,25,40.20
2010,05,03,16,26,40.20
2010,05,03,16,27,38.60
2010,05,03,16,28,37.00
2010,05,03,16,29,38.60
2010,05,03,16,30,30.60
2010,05,03,16,31,37.00
2010,05,03,16,32,53.10
2010,05,03,16,33,43.50
2010,05,03,16,34,37.00
2010,05,03,16,35,49.90
2010,05,03,16,36,46.70
2010,05,03,16,37,33.80
2010,05,03,16,38,40.20
2010,05,03,16,39,53.10
2010,05,03,16,40,46.70
2010,05,03,16,41,48.30
2010,05,03,16,42,41.80
2010,05,03,16,43,49.90
2010,05,03,16,44,48.30
2010,05,03,16,45,56.30
2010,05,03,16,46,57.90
2010,05,03,16,47,48.30
2010,05,03,16,48,40.20
2010,05,03,16,49,43.50
2010,05,03,16,50,40.20
2010,05,03,16,51,45.10
2010,05,03,16,52,35.40
2010,05,03,16,53,43.50
2010,05,03,16,54,40.20
2010,05,03,16,55,41.80
2010,05,03,16,56,37.00
2010,05,03,16,57,27.40
2010,05,03,16,58,32.20
2010,05,03,16,59,29.00
2010,05,03,17,00,37.00
2010,05,03,17,01,35.40
2010,05,03,17,02,41.80
2010,05,03,17,03,37.00
2010,05,03,17,04,30.60
2010,05,03,17,05,40.20
2010,05,03,17,06,38.60
2010,05,03,17,07,38.60
2010,05,03,17,08,46.70
2010,05,03,17,09,38.60
2010,05,03,17,10,37.00
2010,05,03,17,11,35.40
2010,05,03,17,12,32.20
2010,05,03,17,13,33.80
2010,05,03,17,14,49.90
2010,05,03,17,15,46.70
2010,05,03,17,16,45.10
2010,05,03,17,17,37.00
2010,05,03,17,18,37.00
2010,05,03,17,19,24.20
2010,05,03,17,20,29.00